START_TIME,STEP,MOV.,M34,t_acc.,L5,t_acc.,L18,t_acc.,L14,t_acc.
1979-07-16 21:00:24.740 ,0,0,0.,12.0,0.,12.0,0.,12.0,0.,12.0
1979-07-16 21:00:36.740 ,0,0,0.,12.0,0.,12.0,0.,12.0,0.,12.0
1979-07-16 21:00:48.740 ,0,1,0.,12.0,0.,12.0,0.,12.0,0.,12.0
1979-07-16 21:01:00.740 ,0,1,0.,12.0,0.,12.0,0.,12.0,0.,12.0
1979-07-16 21:01:12.740 ,0,0,0.,12.0,0.,12.0,0.,12.0,0.,12.0
1979-07-16 21:01:24.740 ,0,0,0.,12.0,0.,12.0,0.,12.0,0.,12.0
1979-07-16 21:01:36.740 ,1,1,0.,12.0,0.,12.0,0.,12.0,0.,12.0
1979-07-16 21:01:48.740 ,1,1,0.,12.0,0.,12.0,0.,12.0,0.,12.0
1979-07-16 21:02:00.740 ,1,0,0.,12.0,0.,12.0,0.,12.0,0.,12.0
1979-07-16 21:02:12.740 ,1,0,0.,12.0,0.,12.0,0.,12.0,0.,12.0
1979-07-16 21:02:24.740 ,2,1,0.,12.0,0.,12.0,0.,12.0,0.,12.0
1979-07-16 21:02:36.740 ,2,1,0.,12.0,0.,12.0,0.,12.0,0.,12.0
1979-07-16 21:02:48.740 ,2,0,0.,12.0,0.,12.0,0.,12.0,0.,12.0
1979-07-16 21:03:00.740 ,2,0,0.,12.0,0.,12.0,0.,12.0,0.,12.0
1979-07-16 21:03:12.740 ,3,1,0.,12.0,0.,12.0,0.,12.0,0.,12.0
1979-07-16 21:03:24.740 ,3,1,0.,12.0,0.,12.0,0.,12.0,0.,12.0
1979-07-16 21:03:36.740 ,3,0,0.,12.0,0.,12.0,0.,12.0,0.,12.0
1979-07-16 21:03:48.740 ,3,0,0.,12.0,0.,12.0,0.,12.0,0.,12.0
1979-07-16 21:04:00.740 ,4,1,0.,12.0,0.,12.0,0.,12.0,0.,12.0
1979-07-16 21:04:12.740 ,4,1,0.,12.0,0.,12.0,0.,12.0,0.,12.0
1979-07-16 21:04:24.740 ,4,0,0.,12.0,0.,12.0,0.,12.0,0.,12.0
1979-07-16 21:04:36.740 ,4,0,0.,12.0,0.,12.0,0.,12.0,0.,12.0
1979-07-16 21:04:48.740 ,5,1,0.,12.0,0.,12.0,0.,12.0,0.,12.0
1979-07-16 21:05:00.740 ,5,1,0.,12.0,0.,12.0,0.,12.0,0.,12.0
1979-07-16 21:05:12.740 ,5,0,0.,12.0,0.,12.0,0.,12.0,0.,12.0
1979-07-16 21:05:24.740 ,5,0,0.,12.0,0.,12.0,0.,12.0,0.,12.0
1979-07-16 21:05:36.740 ,6,1,0.,12.0,0.,12.0,0.,12.0,0.,12.0
1979-07-16 21:05:48.740 ,6,1,0.,12.0,0.,12.0,0.,12.0,0.,12.0
1979-07-16 21:06:00.740 ,6,0,0.,12.0,0.,12.0,0.,12.0,0.,12.0
1979-07-16 21:06:12.740 ,6,0,0.,12.0,0.,12.0,0.,12.0,0.,12.0
1979-07-16 21:06:24.740 ,7,0,0.,12.0,0.,12.0,0.,12.0,0.,12.0
1979-07-16 21:06:36.740 ,7,0,1.,12.0,0.,12.0,0.,12.0,0.,12.0
1979-07-16 21:06:48.740 ,7,0,0.,12.0,0.,12.0,0.,12.0,0.,12.0
1979-07-16 21:07:00.740 ,7,0,0.,12.0,0.,12.0,0.,12.0,0.,12.0
1979-07-16 21:07:12.740 ,4,1,0.,12.0,0.,12.0,0.,12.0,0.,12.0
1979-07-16 21:07:24.740 ,4,1,0.,12.0,0.,12.0,0.,12.0,0.,12.0
1979-07-16 21:07:36.740 ,0,1,0.,12.0,0.,12.0,0.,12.0,0.,12.0
1979-07-16 21:07:48.740 ,0,1,0.,12.0,0.,12.0,0.,12.0,0.,12.0
1979-07-16 21:08:00.740 ,3,1,0.,12.0,0.,12.0,0.,12.0,0.,12.0
1979-07-16 21:08:12.740 ,3,1,0.,12.0,0.,12.0,0.,12.0,0.,12.0
1979-07-16 21:08:24.740 ,7,1,0.,12.0,0.,12.0,0.,12.0,0.,12.0
1979-07-16 21:08:36.740 ,7,1,0.,12.0,0.,12.0,0.,12.0,0.,12.0
1979-07-16 21:08:48.740 ,4,1,0.,12.0,0.,12.0,0.,12.0,0.,12.0
1979-07-16 21:09:00.740 ,4,1,0.,12.0,0.,12.0,0.,12.0,0.,12.0
1979-07-16 21:09:12.740 ,0,1,0.,12.0,0.,12.0,0.,12.0,0.,12.0
1979-07-16 21:09:24.740 ,0,1,0.,12.0,0.,12.0,0.,12.0,0.,12.0
1979-07-16 21:09:36.740 ,3,1,0.,12.0,0.,12.0,0.,12.0,0.,12.0
1979-07-16 21:09:48.740 ,3,1,0.,12.0,0.,12.0,0.,12.0,0.,12.0
1979-07-16 21:10:00.740 ,7,1,0.,12.0,0.,12.0,0.,12.0,0.,12.0
1979-07-16 21:10:12.740 ,7,1,0.,12.0,0.,12.0,0.,12.0,0.,12.0
1979-07-16 21:10:24.740 ,4,1,0.,12.0,0.,12.0,0.,12.0,0.,12.0
1979-07-16 21:10:36.740 ,4,1,0.,12.0,0.,12.0,0.,12.0,0.,12.0
1979-07-16 21:10:48.740 ,0,1,0.,12.0,0.,12.0,0.,12.0,0.,12.0
1979-07-16 21:11:00.740 ,0,1,0.,12.0,0.,12.0,0.,12.0,0.,12.0
1979-07-16 21:11:12.740 ,3,1,0.,12.0,0.,12.0,0.,12.0,0.,12.0
1979-07-16 21:11:24.740 ,3,1,0.,12.0,0.,12.0,0.,12.0,0.,12.0
1979-07-16 21:11:36.740 ,7,1,0.,12.0,0.,12.0,0.,12.0,0.,12.0
1979-07-16 21:11:48.740 ,7,1,0.,12.0,0.,12.0,0.,12.0,0.,12.0
1979-07-16 21:12:00.740 ,4,1,0.,12.0,0.,12.0,0.,12.0,0.,12.0
1979-07-16 21:12:12.740 ,4,1,0.,12.0,0.,12.0,0.,12.0,0.,12.0
1979-07-16 21:12:24.740 ,0,1,0.,12.0,0.,12.0,0.,12.0,0.,12.0
1979-07-16 21:12:36.740 ,0,1,0.,12.0,0.,12.0,0.,12.0,0.,12.0
1979-07-16 21:12:48.740 ,3,1,0.,12.0,0.,12.0,0.,12.0,0.,12.0
1979-07-16 21:13:00.740 ,3,1,0.,12.0,0.,12.0,0.,12.0,0.,12.0
1979-07-16 21:13:12.740 ,7,1,0.,12.0,0.,12.0,0.,12.0,0.,12.0
1979-07-16 21:13:24.740 ,7,1,0.,12.0,0.,12.0,0.,12.0,0.,12.0
1979-07-16 21:13:36.740 ,4,1,0.,12.0,0.,12.0,0.,12.0,0.,12.0
1979-07-16 21:13:48.740 ,4,1,0.,12.0,0.,12.0,0.,12.0,0.,12.0
1979-07-16 21:14:00.740 ,0,1,0.,12.0,0.,12.0,0.,12.0,0.,12.0
1979-07-16 21:14:12.740 ,0,1,0.,12.0,0.,12.0,0.,12.0,0.,12.0
1979-07-16 21:14:24.740 ,3,1,0.,12.0,0.,12.0,0.,12.0,0.,12.0
1979-07-16 21:14:36.740 ,3,1,0.,12.0,0.,12.0,0.,12.0,0.,12.0
1979-07-16 21:14:48.740 ,7,1,1.,12.0,0.,12.0,0.,12.0,0.,12.0
1979-07-16 21:15:00.740 ,7,1,0.,12.0,0.,12.0,0.,12.0,0.,12.0
1979-07-16 21:15:12.740 ,4,1,0.,12.0,0.,12.0,0.,12.0,0.,12.0
1979-07-16 21:15:24.740 ,4,1,0.,12.0,0.,12.0,0.,12.0,0.,12.0
1979-07-16 21:15:36.740 ,0,1,0.,12.0,0.,12.0,0.,12.0,0.,12.0
1979-07-16 21:15:48.740 ,0,1,0.,12.0,0.,12.0,0.,12.0,0.,12.0
1979-07-16 21:16:00.740 ,3,1,0.,12.0,0.,12.0,0.,12.0,0.,12.0
1979-07-16 21:16:12.740 ,3,1,0.,12.0,0.,12.0,0.,12.0,0.,12.0
1979-07-16 21:16:24.740 ,7,1,0.,12.0,0.,12.0,0.,12.0,0.,12.0
1979-07-16 21:16:36.740 ,7,1,0.,12.0,0.,12.0,0.,12.0,0.,12.0
1979-07-16 21:16:48.740 ,4,1,0.,12.0,0.,12.0,0.,12.0,0.,12.0
1979-07-16 21:17:00.740 ,4,1,0.,12.0,0.,12.0,0.,12.0,0.,12.0
1979-07-16 21:17:12.740 ,0,1,0.,12.0,0.,12.0,0.,12.0,0.,12.0
1979-07-16 21:17:24.740 ,0,1,0.,12.0,0.,12.0,0.,12.0,0.,12.0
1979-07-16 21:17:36.740 ,0,0,0.,12.0,0.,12.0,0.,12.0,0.,12.0
1979-07-16 21:17:48.740 ,0,0,0.,12.0,0.,12.0,0.,12.0,0.,12.0
1979-07-16 21:18:00.740 ,0,0,0.,12.0,0.,12.0,0.,12.0,0.,12.0
1979-07-16 21:18:12.740 ,0,0,0.,12.0,0.,12.0,0.,12.0,0.,12.0
1979-07-16 21:18:24.740 ,5,1,0.,12.0,0.,12.0,0.,12.0,0.,12.0
1979-07-16 21:18:36.740 ,5,1,0.,12.0,0.,12.0,0.,12.0,0.,12.0
1979-07-16 21:18:48.740 ,5,0,0.,12.0,0.,12.0,0.,12.0,0.,12.0
1979-07-16 21:19:00.740 ,5,0,0.,12.0,0.,12.0,0.,12.0,0.,12.0
1979-07-16 21:19:12.740 ,4,1,0.,12.0,0.,12.0,0.,12.0,0.,12.0
1979-07-16 21:19:24.740 ,4,1,0.,12.0,0.,12.0,0.,12.0,0.,12.0
1979-07-16 21:19:36.740 ,4,0,0.,12.0,0.,12.0,0.,12.0,0.,12.0
1979-07-16 21:19:48.740 ,4,0,1.,12.0,0.,12.0,0.,12.0,0.,12.0
1979-07-16 21:20:00.740 ,3,1,0.,12.0,0.,12.0,0.,12.0,0.,12.0
1979-07-16 21:20:12.740 ,3,1,0.,12.0,0.,12.0,0.,12.0,0.,12.0
1979-07-16 21:20:24.740 ,3,0,0.,12.0,0.,12.0,0.,12.0,0.,12.0
1979-07-16 21:20:36.740 ,3,0,0.,12.0,0.,12.0,0.,12.0,0.,12.0
1979-07-16 21:20:48.740 ,2,1,0.,12.0,0.,12.0,0.,12.0,0.,12.0
1979-07-16 21:21:00.740 ,2,1,0.,12.0,0.,12.0,0.,12.0,0.,12.0
1979-07-16 21:21:12.740 ,2,0,1.,12.0,0.,12.0,0.,12.0,0.,12.0
1979-07-16 21:21:24.740 ,2,0,0.,12.0,0.,12.0,0.,12.0,0.,12.0
1979-07-16 21:21:36.740 ,1,1,0.,12.0,0.,12.0,0.,12.0,0.,12.0
1979-07-16 21:21:48.740 ,1,1,0.,12.0,0.,12.0,0.,12.0,0.,12.0
1979-07-16 21:22:00.740 ,1,0,0.,12.0,0.,12.0,0.,12.0,0.,12.0
1979-07-16 21:22:12.740 ,1,0,0.,12.0,0.,12.0,0.,12.0,0.,12.0
1979-07-16 21:22:24.740 ,0,1,0.,12.0,0.,12.0,0.,12.0,0.,12.0
1979-07-16 21:22:36.740 ,0,1,0.,12.0,0.,12.0,0.,12.0,0.,12.0
1979-07-16 21:22:48.740 ,0,0,0.,12.0,0.,12.0,0.,12.0,0.,12.0
1979-07-16 21:23:00.740 ,0,0,0.,12.0,0.,12.0,0.,12.0,0.,12.0
1979-07-16 21:23:12.740 ,0,1,0.,12.0,0.,12.0,0.,12.0,0.,12.0
1979-07-16 21:23:24.740 ,0,1,0.,12.0,0.,12.0,0.,12.0,0.,12.0
1979-07-16 21:23:36.740 ,0,0,0.,12.0,0.,12.0,0.,12.0,0.,12.0
1979-07-16 21:23:48.740 ,0,0,0.,12.0,0.,12.0,0.,12.0,0.,12.0
1979-07-16 21:24:00.740 ,1,1,0.,12.0,0.,12.0,0.,12.0,0.,12.0
1979-07-16 21:24:12.740 ,1,1,0.,12.0,0.,12.0,0.,12.0,0.,12.0
1979-07-16 21:24:24.740 ,1,0,0.,12.0,0.,12.0,0.,12.0,0.,12.0
1979-07-16 21:24:36.740 ,1,0,0.,12.0,0.,12.0,0.,12.0,0.,12.0
1979-07-16 21:24:48.740 ,2,1,0.,12.0,0.,12.0,0.,12.0,0.,12.0
1979-07-16 21:25:00.740 ,2,1,0.,12.0,0.,12.0,0.,12.0,0.,12.0
1979-07-16 21:25:12.740 ,2,0,0.,12.0,0.,12.0,0.,12.0,0.,12.0
1979-07-16 21:25:24.740 ,2,0,0.,12.0,0.,12.0,0.,12.0,0.,12.0
1979-07-16 21:25:36.740 ,3,1,0.,12.0,0.,12.0,0.,12.0,0.,12.0
1979-07-16 21:25:48.740 ,3,1,0.,12.0,0.,12.0,0.,12.0,0.,12.0
1979-07-16 21:26:00.740 ,3,0,0.,12.0,0.,12.0,0.,12.0,0.,12.0
1979-07-16 21:26:12.740 ,3,0,0.,12.0,0.,12.0,0.,12.0,0.,12.0
1979-07-16 21:26:24.740 ,4,1,0.,12.0,0.,12.0,0.,12.0,0.,12.0
1979-07-16 21:26:36.740 ,4,1,0.,12.0,0.,12.0,0.,12.0,0.,12.0
1979-07-16 21:26:48.740 ,4,0,0.,12.0,0.,12.0,0.,12.0,0.,12.0
1979-07-16 21:27:00.740 ,4,0,1.,12.0,0.,12.0,0.,12.0,0.,12.0
1979-07-16 21:27:12.740 ,5,1,0.,12.0,0.,12.0,0.,12.0,0.,12.0
1979-07-16 21:27:24.740 ,5,1,0.,12.0,0.,12.0,0.,12.0,0.,12.0
1979-07-16 21:27:36.740 ,5,0,0.,12.0,0.,12.0,0.,12.0,0.,12.0
1979-07-16 21:27:48.740 ,5,0,0.,12.0,0.,12.0,0.,12.0,0.,12.0
1979-07-16 21:28:00.740 ,6,1,0.,12.0,0.,12.0,0.,12.0,0.,12.0
1979-07-16 21:28:12.740 ,6,1,0.,12.0,0.,12.0,0.,12.0,0.,12.0
1979-07-16 21:28:24.740 ,6,0,0.,12.0,0.,12.0,0.,12.0,0.,12.0
1979-07-16 21:28:36.740 ,6,0,0.,12.0,0.,12.0,0.,12.0,0.,12.0
1979-07-16 21:28:48.740 ,7,1,0.,12.0,0.,12.0,0.,12.0,0.,12.0
1979-07-16 21:29:00.740 ,7,1,0.,12.0,0.,12.0,0.,12.0,0.,12.0
1979-07-16 21:29:12.740 ,7,0,0.,12.0,0.,12.0,0.,12.0,0.,12.0
1979-07-16 21:29:24.740 ,7,0,0.,12.0,0.,12.0,0.,12.0,0.,12.0
1979-07-16 21:29:36.740 ,7,1,0.,12.0,0.,12.0,0.,12.0,0.,12.0
1979-07-16 21:29:48.740 ,7,1,0.,12.0,0.,12.0,0.,12.0,0.,12.0
1979-07-16 21:30:00.740 ,7,0,0.,12.0,0.,12.0,0.,12.0,0.,12.0
1979-07-16 21:30:12.740 ,7,0,0.,12.0,0.,12.0,0.,12.0,0.,12.0
1979-07-16 21:30:24.740 ,6,1,0.,12.0,0.,12.0,0.,12.0,0.,12.0
1979-07-16 21:30:36.740 ,6,1,0.,12.0,0.,12.0,0.,12.0,0.,12.0
1979-07-16 21:30:48.740 ,6,0,0.,12.0,0.,12.0,0.,12.0,0.,12.0
1979-07-16 21:31:00.740 ,6,0,0.,12.0,0.,12.0,0.,12.0,0.,12.0
1979-07-16 21:31:12.740 ,5,1,0.,12.0,0.,12.0,0.,12.0,0.,12.0
1979-07-16 21:31:24.740 ,5,1,0.,12.0,0.,12.0,0.,12.0,0.,12.0
1979-07-16 21:31:36.740 ,5,0,1.,12.0,0.,12.0,0.,12.0,0.,12.0
1979-07-16 21:31:48.740 ,5,0,0.,12.0,0.,12.0,0.,12.0,0.,12.0
1979-07-16 21:32:00.740 ,4,1,0.,12.0,0.,12.0,0.,12.0,0.,12.0
1979-07-16 21:32:12.740 ,4,1,0.,12.0,0.,12.0,0.,12.0,0.,12.0
1979-07-16 21:32:24.740 ,4,0,0.,12.0,0.,12.0,0.,12.0,0.,12.0
1979-07-16 21:32:36.740 ,4,0,0.,12.0,0.,12.0,0.,12.0,0.,12.0
1979-07-16 21:32:48.740 ,3,1,0.,12.0,0.,12.0,0.,12.0,0.,12.0
1979-07-16 21:33:00.740 ,3,1,0.,12.0,0.,12.0,0.,12.0,0.,12.0
1979-07-16 21:33:12.740 ,3,0,0.,12.0,0.,12.0,0.,12.0,0.,12.0
1979-07-16 21:33:24.740 ,3,0,0.,12.0,0.,12.0,0.,12.0,0.,12.0
1979-07-16 21:33:36.740 ,2,1,0.,12.0,0.,12.0,0.,12.0,0.,12.0
1979-07-16 21:33:48.740 ,2,1,0.,12.0,0.,12.0,0.,12.0,0.,12.0
1979-07-16 21:34:00.740 ,2,0,0.,12.0,0.,12.0,0.,12.0,0.,12.0
1979-07-16 21:34:12.740 ,2,0,0.,12.0,0.,12.0,0.,12.0,0.,12.0
1979-07-16 21:34:24.740 ,1,1,0.,12.0,0.,12.0,0.,12.0,0.,12.0
1979-07-16 21:34:36.740 ,1,1,0.,12.0,0.,12.0,0.,12.0,0.,12.0
1979-07-16 21:34:48.740 ,1,0,0.,12.0,0.,12.0,0.,12.0,0.,12.0
1979-07-16 21:35:00.740 ,1,0,0.,12.0,0.,12.0,0.,12.0,0.,12.0
1979-07-16 21:35:12.740 ,0,1,0.,12.0,0.,12.0,0.,12.0,0.,12.0
1979-07-16 21:35:24.740 ,0,1,0.,12.0,0.,12.0,0.,12.0,0.,12.0
1979-07-16 21:35:36.740 ,0,0,0.,12.0,0.,12.0,0.,12.0,0.,12.0
1979-07-16 21:35:48.740 ,0,0,0.,12.0,0.,12.0,0.,12.0,0.,12.0
1979-07-16 21:36:00.740 ,0,1,0.,12.0,0.,12.0,0.,12.0,0.,12.0
1979-07-16 21:36:12.740 ,0,1,0.,12.0,0.,12.0,0.,12.0,0.,12.0
1979-07-16 21:36:24.740 ,0,0,0.,12.0,0.,12.0,0.,12.0,0.,12.0
1979-07-16 21:36:36.740 ,0,0,0.,12.0,0.,12.0,0.,12.0,0.,12.0
1979-07-16 21:36:48.740 ,1,1,0.,12.0,0.,12.0,0.,12.0,0.,12.0
1979-07-16 21:37:00.740 ,1,1,0.,12.0,0.,12.0,0.,12.0,0.,12.0
1979-07-16 21:37:12.740 ,1,0,1.,12.0,0.,12.0,0.,12.0,0.,12.0
1979-07-16 21:37:24.740 ,1,0,0.,12.0,0.,12.0,0.,12.0,0.,12.0
1979-07-16 21:37:36.740 ,2,1,0.,12.0,0.,12.0,0.,12.0,0.,12.0
1979-07-16 21:37:48.740 ,2,1,0.,12.0,0.,12.0,0.,12.0,0.,12.0
1979-07-16 21:38:00.740 ,2,0,0.,12.0,0.,12.0,0.,12.0,0.,12.0
1979-07-16 21:38:12.740 ,2,0,0.,12.0,0.,12.0,0.,12.0,0.,12.0
1979-07-16 21:38:24.740 ,3,1,0.,12.0,0.,12.0,0.,12.0,0.,12.0
1979-07-16 21:38:36.740 ,3,1,0.,12.0,0.,12.0,0.,12.0,0.,12.0
1979-07-16 21:38:48.740 ,3,0,0.,12.0,0.,12.0,0.,12.0,0.,12.0
1979-07-16 21:39:00.740 ,3,0,0.,12.0,0.,12.0,0.,12.0,0.,12.0
1979-07-16 21:39:12.740 ,4,1,0.,12.0,0.,12.0,0.,12.0,0.,12.0
1979-07-16 21:39:24.740 ,4,1,0.,12.0,0.,12.0,0.,12.0,0.,12.0
1979-07-16 21:39:36.740 ,4,0,0.,12.0,0.,12.0,0.,12.0,0.,12.0
1979-07-16 21:39:48.740 ,4,0,0.,12.0,0.,12.0,0.,12.0,0.,12.0
1979-07-16 21:40:00.740 ,5,1,0.,12.0,0.,12.0,0.,12.0,0.,12.0
1979-07-16 21:40:12.740 ,5,1,0.,12.0,0.,12.0,0.,12.0,0.,12.0
1979-07-16 21:40:24.740 ,5,0,0.,12.0,0.,12.0,0.,12.0,0.,12.0
1979-07-16 21:40:36.740 ,5,0,1.,12.0,0.,12.0,0.,12.0,0.,12.0
1979-07-16 21:40:48.740 ,6,1,0.,12.0,0.,12.0,0.,12.0,0.,12.0
1979-07-16 21:41:00.740 ,6,1,0.,12.0,0.,12.0,0.,12.0,0.,12.0
1979-07-16 21:41:12.740 ,6,0,0.,12.0,0.,12.0,0.,12.0,0.,12.0
1979-07-16 21:41:24.740 ,6,0,0.,12.0,0.,12.0,0.,12.0,0.,12.0
1979-07-16 21:41:36.740 ,7,1,0.,12.0,0.,12.0,0.,12.0,0.,12.0
1979-07-16 21:41:48.740 ,7,1,0.,12.0,0.,12.0,0.,12.0,0.,12.0
1979-07-16 21:42:00.740 ,7,0,0.,12.0,0.,12.0,0.,12.0,0.,12.0
1979-07-16 21:42:12.740 ,7,0,0.,12.0,0.,12.0,0.,12.0,0.,12.0
1979-07-16 21:42:24.740 ,7,1,0.,12.0,0.,12.0,0.,12.0,0.,12.0
1979-07-16 21:42:36.740 ,7,1,0.,12.0,0.,12.0,0.,12.0,0.,12.0
1979-07-16 21:42:48.740 ,7,0,0.,12.0,0.,12.0,0.,12.0,0.,12.0
1979-07-16 21:43:00.740 ,7,0,0.,12.0,0.,12.0,0.,12.0,0.,12.0
1979-07-16 21:43:12.740 ,6,1,0.,12.0,0.,12.0,0.,12.0,0.,12.0
1979-07-16 21:43:24.740 ,6,1,0.,12.0,0.,12.0,0.,12.0,0.,12.0
1979-07-16 21:43:36.740 ,6,0,0.,12.0,0.,12.0,0.,12.0,0.,12.0
1979-07-16 21:43:48.740 ,6,0,0.,12.0,0.,12.0,0.,12.0,0.,12.0
1979-07-16 21:44:00.740 ,5,1,0.,12.0,0.,12.0,0.,12.0,0.,12.0
1979-07-16 21:44:12.740 ,5,1,0.,12.0,0.,12.0,0.,12.0,0.,12.0
1979-07-16 21:44:24.740 ,5,0,0.,12.0,0.,12.0,0.,12.0,0.,12.0
1979-07-16 21:44:36.740 ,5,0,0.,12.0,0.,12.0,0.,12.0,0.,12.0
1979-07-16 21:44:48.740 ,4,1,0.,12.0,0.,12.0,0.,12.0,0.,12.0
1979-07-16 21:45:00.740 ,4,1,0.,12.0,0.,12.0,0.,12.0,0.,12.0
1979-07-16 21:45:12.740 ,4,0,0.,12.0,0.,12.0,0.,12.0,0.,12.0
1979-07-16 21:45:24.740 ,4,0,0.,12.0,0.,12.0,0.,12.0,0.,12.0
1979-07-16 21:45:36.740 ,3,1,0.,12.0,0.,12.0,0.,12.0,0.,12.0
1979-07-16 21:45:48.740 ,3,1,0.,12.0,0.,12.0,0.,12.0,0.,12.0
1979-07-16 21:46:00.740 ,3,0,0.,12.0,0.,12.0,0.,12.0,0.,12.0
1979-07-16 21:46:12.740 ,3,0,1.,12.0,0.,12.0,0.,12.0,0.,12.0
1979-07-16 21:46:24.740 ,2,1,0.,12.0,0.,12.0,0.,12.0,0.,12.0
1979-07-16 21:46:36.740 ,2,1,0.,12.0,0.,12.0,0.,12.0,0.,12.0
1979-07-16 21:46:48.740 ,2,0,0.,12.0,0.,12.0,0.,12.0,0.,12.0
1979-07-16 21:47:00.740 ,2,0,0.,12.0,0.,12.0,0.,12.0,0.,12.0
1979-07-16 21:47:12.740 ,1,1,1.,12.0,0.,12.0,0.,12.0,0.,12.0
1979-07-16 21:47:24.740 ,1,1,0.,12.0,0.,12.0,0.,12.0,0.,12.0
1979-07-16 21:47:36.740 ,1,0,1.,12.0,0.,12.0,0.,12.0,0.,12.0
1979-07-16 21:47:48.740 ,1,0,0.,12.0,0.,12.0,0.,12.0,0.,12.0
1979-07-16 21:48:00.740 ,0,1,0.,12.0,0.,12.0,0.,12.0,0.,12.0
1979-07-16 21:48:12.740 ,0,1,0.,12.0,0.,12.0,0.,12.0,0.,12.0
1979-07-16 21:48:24.740 ,0,0,0.,12.0,0.,12.0,0.,12.0,0.,12.0
1979-07-16 21:48:36.740 ,0,0,0.,12.0,0.,12.0,0.,12.0,0.,12.0
1979-07-16 21:48:48.740 ,0,1,1.,12.0,0.,12.0,0.,12.0,0.,12.0
1979-07-16 21:49:00.740 ,0,1,0.,12.0,0.,12.0,0.,12.0,0.,12.0
1979-07-16 21:49:12.740 ,0,0,0.,12.0,0.,12.0,0.,12.0,0.,12.0
1979-07-16 21:49:24.740 ,0,0,0.,12.0,0.,12.0,0.,12.0,0.,12.0
1979-07-16 21:49:36.740 ,1,1,0.,12.0,0.,12.0,0.,12.0,0.,12.0
1979-07-16 21:49:48.740 ,1,1,0.,12.0,0.,12.0,0.,12.0,0.,12.0
1979-07-16 21:50:00.740 ,1,0,0.,12.0,0.,12.0,0.,12.0,0.,12.0
1979-07-16 21:50:12.740 ,1,0,0.,12.0,0.,12.0,0.,12.0,0.,12.0
1979-07-16 21:50:24.740 ,2,1,0.,12.0,0.,12.0,0.,12.0,0.,12.0
1979-07-16 21:50:36.740 ,2,1,0.,12.0,0.,12.0,0.,12.0,0.,12.0
1979-07-16 21:50:48.740 ,2,0,0.,12.0,0.,12.0,0.,12.0,0.,12.0
1979-07-16 21:51:00.740 ,2,0,0.,12.0,0.,12.0,0.,12.0,0.,12.0
1979-07-16 21:51:12.740 ,3,1,0.,12.0,0.,12.0,0.,12.0,0.,12.0
1979-07-16 21:51:24.740 ,3,1,0.,12.0,0.,12.0,0.,12.0,0.,12.0
1979-07-16 21:51:36.740 ,3,0,0.,12.0,0.,12.0,0.,12.0,1.,12.0
1979-07-16 21:51:48.740 ,3,0,0.,12.0,0.,12.0,0.,12.0,0.,12.0
1979-07-16 21:52:00.740 ,4,1,1.,12.0,0.,12.0,0.,12.0,0.,12.0
1979-07-16 21:52:12.740 ,4,1,1.,12.0,0.,12.0,0.,12.0,0.,12.0
1979-07-16 21:52:24.740 ,4,0,0.,12.0,0.,12.0,0.,12.0,0.,12.0
1979-07-16 21:52:36.740 ,4,0,0.,12.0,0.,12.0,0.,12.0,0.,12.0
1979-07-16 21:52:48.740 ,5,1,0.,12.0,0.,12.0,0.,12.0,0.,12.0
1979-07-16 21:53:00.740 ,5,1,0.,12.0,0.,12.0,0.,12.0,0.,12.0
1979-07-16 21:53:12.740 ,5,0,0.,12.0,0.,12.0,0.,12.0,0.,12.0
1979-07-16 21:53:24.740 ,5,0,0.,12.0,0.,12.0,0.,12.0,0.,12.0
1979-07-16 21:53:36.740 ,6,1,0.,12.0,0.,12.0,0.,12.0,0.,12.0
1979-07-16 21:53:48.740 ,6,1,0.,12.0,0.,12.0,0.,12.0,0.,12.0
1979-07-16 21:54:00.740 ,6,0,0.,12.0,0.,12.0,0.,12.0,0.,12.0
1979-07-16 21:54:12.740 ,6,0,0.,12.0,0.,12.0,0.,12.0,0.,12.0
1979-07-16 21:54:24.740 ,7,0,0.,12.0,0.,12.0,0.,12.0,0.,12.0
1979-07-16 21:54:36.740 ,7,0,0.,12.0,0.,12.0,0.,12.0,0.,12.0
1979-07-16 21:54:48.740 ,7,0,0.,12.0,0.,12.0,0.,12.0,0.,12.0
1979-07-16 21:55:00.740 ,7,0,0.,12.0,0.,12.0,0.,12.0,0.,12.0
1979-07-16 21:55:12.740 ,4,1,0.,12.0,0.,12.0,0.,12.0,0.,12.0
1979-07-16 21:55:24.740 ,4,1,0.,12.0,0.,12.0,0.,12.0,0.,12.0
1979-07-16 21:55:36.740 ,0,1,0.,12.0,0.,12.0,0.,12.0,0.,12.0
1979-07-16 21:55:48.740 ,0,1,0.,12.0,0.,12.0,0.,12.0,0.,12.0
1979-07-16 21:56:00.740 ,3,1,0.,12.0,0.,12.0,0.,12.0,0.,12.0
1979-07-16 21:56:12.740 ,3,1,0.,12.0,0.,12.0,0.,12.0,0.,12.0
1979-07-16 21:56:24.740 ,7,1,0.,12.0,0.,12.0,0.,12.0,0.,12.0
1979-07-16 21:56:36.740 ,7,1,0.,12.0,0.,12.0,0.,12.0,0.,12.0
1979-07-16 21:56:48.740 ,4,1,0.,12.0,0.,12.0,0.,12.0,0.,12.0
1979-07-16 21:57:00.740 ,4,1,0.,12.0,0.,12.0,0.,12.0,0.,12.0
1979-07-16 21:57:12.740 ,0,1,1.,12.0,0.,12.0,0.,12.0,0.,12.0
1979-07-16 21:57:24.740 ,0,1,0.,12.0,0.,12.0,0.,12.0,0.,12.0
1979-07-16 21:57:36.740 ,3,1,0.,12.0,0.,12.0,0.,12.0,0.,12.0
1979-07-16 21:57:48.740 ,3,1,0.,12.0,0.,12.0,0.,12.0,0.,12.0
1979-07-16 21:58:00.740 ,7,1,0.,12.0,0.,12.0,0.,12.0,0.,12.0
1979-07-16 21:58:12.740 ,7,1,0.,12.0,0.,12.0,0.,12.0,0.,12.0
1979-07-16 21:58:24.740 ,4,1,0.,12.0,0.,12.0,0.,12.0,0.,12.0
1979-07-16 21:58:36.740 ,4,1,0.,12.0,0.,12.0,0.,12.0,0.,12.0
1979-07-16 21:58:48.740 ,0,1,0.,12.0,0.,12.0,0.,12.0,0.,12.0
1979-07-16 21:59:00.740 ,0,1,0.,12.0,0.,12.0,0.,12.0,0.,12.0
1979-07-16 21:59:12.740 ,3,1,0.,12.0,0.,12.0,0.,12.0,0.,12.0
1979-07-16 21:59:24.740 ,3,1,0.,12.0,0.,12.0,0.,12.0,0.,12.0
1979-07-16 21:59:36.740 ,7,1,0.,12.0,0.,12.0,0.,12.0,0.,12.0
1979-07-16 21:59:48.740 ,7,1,0.,12.0,0.,12.0,0.,12.0,0.,12.0
1979-07-16 22:00:00.740 ,4,1,0.,12.0,0.,12.0,0.,12.0,0.,12.0
1979-07-16 22:00:12.740 ,4,1,0.,12.0,0.,12.0,0.,12.0,0.,12.0
1979-07-16 22:00:24.740 ,0,1,0.,12.0,0.,12.0,0.,12.0,0.,12.0
1979-07-16 22:00:36.740 ,0,1,1.,12.0,0.,12.0,0.,12.0,0.,12.0
1979-07-16 22:00:48.740 ,3,1,0.,12.0,0.,12.0,0.,12.0,0.,12.0
1979-07-16 22:01:00.740 ,3,1,0.,12.0,0.,12.0,0.,12.0,0.,12.0
1979-07-16 22:01:12.740 ,7,1,0.,12.0,0.,12.0,0.,12.0,0.,12.0
1979-07-16 22:01:24.740 ,7,1,0.,12.0,0.,12.0,0.,12.0,0.,12.0
1979-07-16 22:01:36.740 ,4,1,0.,12.0,0.,12.0,0.,12.0,0.,12.0
1979-07-16 22:01:48.740 ,4,1,0.,12.0,0.,12.0,0.,12.0,0.,12.0
1979-07-16 22:02:00.740 ,0,1,0.,12.0,0.,12.0,0.,12.0,0.,12.0
1979-07-16 22:02:12.740 ,0,1,0.,12.0,0.,12.0,0.,12.0,0.,12.0
1979-07-16 22:02:24.740 ,3,1,0.,12.0,0.,12.0,0.,12.0,0.,12.0
1979-07-16 22:02:36.740 ,3,1,0.,12.0,0.,12.0,0.,12.0,0.,12.0
1979-07-16 22:02:48.740 ,7,1,1.,12.0,0.,12.0,0.,12.0,0.,12.0
1979-07-16 22:03:00.740 ,7,1,0.,12.0,0.,12.0,0.,12.0,0.,12.0
1979-07-16 22:03:12.740 ,4,1,0.,12.0,0.,12.0,0.,12.0,0.,12.0
1979-07-16 22:03:24.740 ,4,1,0.,12.0,0.,12.0,0.,12.0,0.,12.0
1979-07-16 22:03:36.740 ,0,1,0.,12.0,0.,12.0,0.,12.0,0.,12.0
1979-07-16 22:03:48.740 ,0,1,0.,12.0,0.,12.0,0.,12.0,0.,12.0
1979-07-16 22:04:00.740 ,3,1,0.,12.0,0.,12.0,0.,12.0,0.,12.0
1979-07-16 22:04:12.740 ,3,1,0.,12.0,0.,12.0,0.,12.0,0.,12.0
1979-07-16 22:04:24.740 ,7,1,0.,12.0,0.,12.0,0.,12.0,0.,12.0
1979-07-16 22:04:36.740 ,7,1,0.,12.0,0.,12.0,0.,12.0,0.,12.0
1979-07-16 22:04:48.740 ,4,1,0.,12.0,0.,12.0,0.,12.0,0.,12.0
1979-07-16 22:05:00.740 ,4,1,0.,12.0,0.,12.0,0.,12.0,0.,12.0
1979-07-16 22:05:12.740 ,0,1,0.,12.0,0.,12.0,0.,12.0,0.,12.0
1979-07-16 22:05:24.740 ,0,1,0.,12.0,0.,12.0,0.,12.0,0.,12.0
1979-07-16 22:05:36.740 ,0,0,0.,12.0,0.,12.0,0.,12.0,0.,12.0
1979-07-16 22:05:48.740 ,0,0,0.,12.0,0.,12.0,0.,12.0,0.,12.0
1979-07-16 22:06:00.740 ,0,0,0.,12.0,0.,12.0,0.,12.0,0.,12.0
1979-07-16 22:06:12.740 ,0,0,0.,12.0,0.,12.0,0.,12.0,0.,12.0
1979-07-16 22:06:24.740 ,5,1,0.,12.0,0.,12.0,0.,12.0,0.,12.0
1979-07-16 22:06:36.740 ,5,1,0.,12.0,0.,12.0,0.,12.0,0.,12.0
1979-07-16 22:06:48.740 ,5,0,0.,12.0,0.,12.0,0.,12.0,0.,12.0
1979-07-16 22:07:00.740 ,5,0,0.,12.0,0.,12.0,0.,12.0,0.,12.0
1979-07-16 22:07:12.740 ,4,1,0.,12.0,0.,12.0,0.,12.0,0.,12.0
1979-07-16 22:07:24.740 ,4,1,0.,12.0,0.,12.0,0.,12.0,0.,12.0
1979-07-16 22:07:36.740 ,4,0,0.,12.0,0.,12.0,0.,12.0,0.,12.0
1979-07-16 22:07:48.740 ,4,0,0.,12.0,0.,12.0,0.,12.0,0.,12.0
1979-07-16 22:08:00.740 ,3,1,0.,12.0,0.,12.0,0.,12.0,0.,12.0
1979-07-16 22:08:12.740 ,3,1,0.,12.0,0.,12.0,0.,12.0,0.,12.0
1979-07-16 22:08:24.740 ,3,0,0.,12.0,0.,12.0,0.,12.0,0.,12.0
1979-07-16 22:08:36.740 ,3,0,0.,12.0,0.,12.0,0.,12.0,0.,12.0
1979-07-16 22:08:48.740 ,2,1,0.,12.0,0.,12.0,0.,12.0,0.,12.0
1979-07-16 22:09:00.740 ,2,1,0.,12.0,0.,12.0,0.,12.0,0.,12.0
1979-07-16 22:09:12.740 ,2,0,0.,12.0,0.,12.0,0.,12.0,0.,12.0
1979-07-16 22:09:24.740 ,2,0,0.,12.0,0.,12.0,0.,12.0,0.,12.0
1979-07-16 22:09:36.740 ,1,1,0.,12.0,0.,12.0,0.,12.0,0.,12.0
1979-07-16 22:09:48.740 ,1,1,0.,12.0,0.,12.0,0.,12.0,0.,12.0
1979-07-16 22:10:00.740 ,1,0,0.,12.0,0.,12.0,0.,12.0,0.,12.0
1979-07-16 22:10:12.740 ,1,0,0.,12.0,0.,12.0,0.,12.0,0.,12.0
1979-07-16 22:10:24.740 ,0,1,0.,12.0,0.,12.0,0.,12.0,0.,12.0
1979-07-16 22:10:36.740 ,0,1,0.,12.0,0.,12.0,0.,12.0,0.,12.0
1979-07-16 22:10:48.740 ,0,0,0.,12.0,0.,12.0,0.,12.0,0.,12.0
1979-07-16 22:11:00.740 ,0,0,0.,12.0,0.,12.0,0.,12.0,0.,12.0
1979-07-16 22:11:12.740 ,0,1,0.,12.0,0.,12.0,0.,12.0,0.,12.0
1979-07-16 22:11:24.740 ,0,1,0.,12.0,0.,12.0,0.,12.0,0.,12.0
1979-07-16 22:11:36.740 ,0,0,0.,12.0,0.,12.0,0.,12.0,0.,12.0
1979-07-16 22:11:48.740 ,0,0,0.,12.0,0.,12.0,0.,12.0,0.,12.0
1979-07-16 22:12:00.740 ,1,1,0.,12.0,0.,12.0,0.,12.0,0.,12.0
1979-07-16 22:12:12.740 ,1,1,0.,12.0,0.,12.0,0.,12.0,0.,12.0
1979-07-16 22:12:24.740 ,1,0,0.,12.0,0.,12.0,0.,12.0,0.,12.0
1979-07-16 22:12:36.740 ,1,0,0.,12.0,0.,12.0,0.,12.0,0.,12.0
1979-07-16 22:12:48.740 ,2,1,0.,12.0,0.,12.0,0.,12.0,0.,12.0
1979-07-16 22:13:00.740 ,2,1,0.,12.0,0.,12.0,0.,12.0,0.,12.0
1979-07-16 22:13:12.740 ,2,0,0.,12.0,0.,12.0,0.,12.0,0.,12.0
1979-07-16 22:13:24.740 ,2,0,1.,12.0,0.,12.0,0.,12.0,0.,12.0
1979-07-16 22:14:24.740 ,0,0,0.,12.0,0.,12.0,0.,12.0,0.,12.0
1979-07-16 22:14:36.740 ,0,0,1.,12.0,0.,12.0,0.,12.0,0.,12.0
1979-07-16 22:14:48.740 ,0,0,0.,12.0,0.,12.0,0.,12.0,0.,12.0
1979-07-16 22:15:00.740 ,0,0,0.,12.0,0.,12.0,0.,12.0,0.,12.0
1979-07-16 22:15:12.740 ,5,1,0.,12.0,0.,12.0,0.,12.0,0.,12.0
1979-07-16 22:15:24.740 ,5,1,0.,12.0,0.,12.0,0.,12.0,0.,12.0
1979-07-16 22:15:36.740 ,5,0,0.,12.0,0.,12.0,0.,12.0,0.,12.0
1979-07-16 22:15:48.740 ,5,0,0.,12.0,0.,12.0,0.,12.0,0.,12.0
1979-07-16 22:16:00.740 ,6,1,0.,12.0,0.,12.0,0.,12.0,0.,12.0
1979-07-16 22:16:12.740 ,6,1,0.,12.0,0.,12.0,0.,12.0,0.,12.0
1979-07-16 22:16:24.740 ,6,0,0.,12.0,0.,12.0,0.,12.0,0.,12.0
1979-07-16 22:16:36.740 ,6,0,0.,12.0,0.,12.0,0.,12.0,0.,12.0
1979-07-16 22:16:48.740 ,7,1,0.,12.0,0.,12.0,0.,12.0,0.,12.0
1979-07-16 22:17:00.740 ,7,1,0.,12.0,0.,12.0,0.,12.0,0.,12.0
1979-07-16 22:17:12.740 ,7,0,0.,12.0,0.,12.0,0.,12.0,0.,12.0
1979-07-16 22:17:24.740 ,7,0,0.,12.0,0.,12.0,0.,12.0,0.,12.0
1979-07-16 22:17:36.740 ,7,1,0.,12.0,0.,12.0,0.,12.0,0.,12.0
1979-07-16 22:17:48.740 ,7,1,0.,12.0,0.,12.0,0.,12.0,0.,12.0
1979-07-16 22:18:00.740 ,7,0,0.,12.0,0.,12.0,0.,12.0,0.,12.0
1979-07-16 22:18:12.740 ,7,0,0.,12.0,0.,12.0,0.,12.0,0.,12.0